Puget — AEQW — position and weather

sailwx.info

Track history (hours):
 
Tides and Currents Weather Stations Pressure Air Temp Water Temp Dewpoint Dewpoint Depression Visibility Wind Speed Wind Dir Waves Ship Positions

Puget

Last reported at 2014-Sep-15 01:33 UTC. Time now 2014-Sep-15 02:07 UTC.
Position N 47°40' W 122°24'.

Length 20 m; draft 0.2 m.

Type: Ship. MMSI: 369970510.

Date/timePositionNaut miles runAvg speedWind from/ knotsBaromVisibWave heightAir tempDewpointWater temp
2014-Sep-15 01:33N 47°40' W 122°24'0 0.0
2014-Sep-15 00:33N 47°40' W 122°24'0 0.0
2014-Sep-14 23:33N 47°40' W 122°24'0 0.0
2014-Sep-14 22:33N 47°40' W 122°24'0 0.0
2014-Sep-14 21:33N 47°40' W 122°24'0 0.0
2014-Sep-14 20:33N 47°40' W 122°24'0 0.0
2014-Sep-14 19:33N 47°40' W 122°24'0 0.0
2014-Sep-14 18:33N 47°40' W 122°24'0 0.0
2014-Sep-14 17:33N 47°40' W 122°24'0 0.0
2014-Sep-14 16:33N 47°40' W 122°24'0 0.0
2014-Sep-14 13:32N 47°40' W 122°24'0 0.0
2014-Sep-14 12:33N 47°40' W 122°24'0 0.0
2014-Sep-14 11:33N 47°40' W 122°24'0 0.0
2014-Sep-14 10:33N 47°40' W 122°24'0 0.0
2014-Sep-14 09:33N 47°40' W 122°24'0 0.0
2014-Sep-14 08:33N 47°40' W 122°24'0 0.0
2014-Sep-14 07:33N 47°40' W 122°24'0 0.0
2014-Sep-14 06:33N 47°40' W 122°24'0 0.0
2014-Sep-14 05:33N 47°40' W 122°24'0 0.0
2014-Sep-14 04:33N 47°40' W 122°24'0 0.0
2014-Sep-14 03:33N 47°40' W 122°24'0 0.0
2014-Sep-14 02:33N 47°40' W 122°24'0 0.0
2014-Sep-14 01:33N 47°40' W 122°24'0 0.0
2014-Sep-13 21:33N 47°40' W 122°24'0 0.0
2014-Sep-13 20:33N 47°40' W 122°24'0 0.0
2014-Sep-13 19:33N 47°40' W 122°24'0 0.0
2014-Sep-13 18:33N 47°40' W 122°24'0 0.0
2014-Sep-13 17:33N 47°40' W 122°24'0 0.0
2014-Sep-13 16:33N 47°40' W 122°24'0 0.0
2014-Sep-13 15:33N 47°40' W 122°24'0 0.0
2014-Sep-13 14:33N 47°40' W 122°24'0 0.0
2014-Sep-13 13:33N 47°40' W 122°24'0 0.0
2014-Sep-13 12:33N 47°40' W 122°24'0 0.0
2014-Sep-13 11:33N 47°40' W 122°24'0 0.0
2014-Sep-13 10:33N 47°40' W 122°24'0 0.0
2014-Sep-13 09:33N 47°40' W 122°24'0 0.0
2014-Sep-13 08:33N 47°40' W 122°24'0 0.0
2014-Sep-13 07:33N 47°40' W 122°24'0 0.0
2014-Sep-13 06:33N 47°40' W 122°24'0 0.0
2014-Sep-13 05:33N 47°40' W 122°24'0 0.0
2014-Sep-13 04:33N 47°40' W 122°24'0 0.0
2014-Sep-13 03:33N 47°40' W 122°24'0 0.0
2014-Sep-13 02:33N 47°40' W 122°24'0 0.0
2014-Sep-13 01:33N 47°40' W 122°24'0 0.0
2014-Sep-13 00:33N 47°40' W 122°24'0 0.0
2014-Sep-12 23:33N 47°40' W 122°24'0 0.0
2014-Sep-12 22:33N 47°40' W 122°24'0 0.0
2014-Sep-12 21:33N 47°40' W 122°24'0 0.0
2014-Sep-12 20:33N 47°40' W 122°24'0 0.0
2014-Sep-12 19:33N 47°40' W 122°24'0 0.0
2014-Sep-12 18:33N 47°40' W 122°24'0 0.0
2014-Sep-12 17:33N 47°40' W 122°24'0 0.0
2014-Sep-12 16:33N 47°40' W 122°24'0 0.0
2014-Sep-12 15:33N 47°40' W 122°24'0 0.0
2014-Sep-12 14:33N 47°40' W 122°24'0 0.0
2014-Sep-12 13:33N 47°40' W 122°24'0 0.0
2014-Sep-12 12:33N 47°40' W 122°24'0 0.0
2014-Sep-12 11:33N 47°40' W 122°24'0 0.0
2014-Sep-12 10:33N 47°40' W 122°24'0 0.0
2014-Sep-12 09:33N 47°40' W 122°24'0 0.0
2014-Sep-12 08:33N 47°40' W 122°24'0 0.0
2014-Sep-12 07:33N 47°40' W 122°24'0 0.0
2014-Sep-12 06:33N 47°40' W 122°24'0 0.0
2014-Sep-12 05:33N 47°40' W 122°24'0 0.0
2014-Sep-12 04:33N 47°40' W 122°24'0 0.0
2014-Sep-12 03:33N 47°40' W 122°24'0 0.0
2014-Sep-12 02:34N 47°40' W 122°24'0 0.0
2014-Sep-12 01:33N 47°40' W 122°24'0 0.0
2014-Sep-12 00:33N 47°40' W 122°24'0 0.0
2014-Sep-11 23:33N 47°40' W 122°24'0 0.0
2014-Sep-11 22:33N 47°40' W 122°24'0 0.2
2014-Sep-11 21:33N 47°40' W 122°24'0 0.5
2014-Sep-11 20:33N 47°40' W 122°24'3 2.7
2014-Sep-11 19:33N 47°38' W 122°27'1010.0
2014-Sep-11 18:33N 47°28' W 122°31'1111.0
2014-Sep-11 17:33N 47°17' W 122°32'17 0.9
2014-Sep-10 22:32N 47°09' W 122°54'7 6.4
2014-Sep-10 21:24N 47°07' W 122°43'6 6.8
2014-Sep-10 20:33N 47°12' W 122°38'8 6.2
2014-Sep-10 19:19N 47°19' W 122°43'2 2.1
2014-Sep-10 18:33N 47°20' W 122°42'6 5.6
2014-Sep-10 17:28N 47°14' W 122°42'6 6.0
2014-Sep-10 16:33N 47°10' W 122°47'2 0.1
2014-Sep-09 22:20N 47°11' W 122°48'1 1.4
2014-Sep-09 21:16N 47°10' W 122°47'5 6.5
2014-Sep-09 20:29N 47°14' W 122°51'4 1.9
2014-Sep-09 18:17N 47°17' W 122°55'9 0.5
2014-Sep-08 22:07N 47°08' W 122°55'5 8.5
2014-Sep-08 21:29N 47°11' W 122°49'6 6.9
2014-Sep-08 20:33N 47°09' W 122°40'9 9.2
2014-Sep-08 19:33N 47°17' W 122°33'8 8.1
2014-Sep-08 18:33N 47°25' W 122°32'7 7.0
2014-Sep-08 17:33N 47°32' W 122°28'7 6.6
2014-Sep-08 16:33N 47°36' W 122°20'1 1.4
2014-Sep-08 15:33N 47°37' W 122°22'3 3.2
2014-Sep-08 14:33N 47°40' W 122°24'  
Track history (hours):
 
Tides and Currents Weather Stations Pressure Air Temp Water Temp Dewpoint Dewpoint Depression Visibility Wind Speed Wind Dir Waves Ship Positions

Puget

Last reported at 2014-Sep-15 01:33 UTC. Time now 2014-Sep-15 02:07 UTC.
Position N 47°40' W 122°24'.

Length 20 m; draft 0.2 m.

Type: Ship. MMSI: 369970510.

Date/timePositionNaut miles runAvg speedWind from/ knotsBaromVisibWave heightAir tempDewpointWater temp
2014-Sep-15 01:33N 47°40' W 122°24'0 0.0
2014-Sep-15 00:33N 47°40' W 122°24'0 0.0
2014-Sep-14 23:33N 47°40' W 122°24'0 0.0
2014-Sep-14 22:33N 47°40' W 122°24'0 0.0
2014-Sep-14 21:33N 47°40' W 122°24'0 0.0
2014-Sep-14 20:33N 47°40' W 122°24'0 0.0
2014-Sep-14 19:33N 47°40' W 122°24'0 0.0
2014-Sep-14 18:33N 47°40' W 122°24'0 0.0
2014-Sep-14 17:33N 47°40' W 122°24'0 0.0
2014-Sep-14 16:33N 47°40' W 122°24'0 0.0
2014-Sep-14 13:32N 47°40' W 122°24'0 0.0
2014-Sep-14 12:33N 47°40' W 122°24'0 0.0
2014-Sep-14 11:33N 47°40' W 122°24'0 0.0
2014-Sep-14 10:33N 47°40' W 122°24'0 0.0
2014-Sep-14 09:33N 47°40' W 122°24'0 0.0
2014-Sep-14 08:33N 47°40' W 122°24'0 0.0
2014-Sep-14 07:33N 47°40' W 122°24'0 0.0
2014-Sep-14 06:33N 47°40' W 122°24'0 0.0
2014-Sep-14 05:33N 47°40' W 122°24'0 0.0
2014-Sep-14 04:33N 47°40' W 122°24'0 0.0
2014-Sep-14 03:33N 47°40' W 122°24'0 0.0
2014-Sep-14 02:33N 47°40' W 122°24'0 0.0
2014-Sep-14 01:33N 47°40' W 122°24'0 0.0
2014-Sep-13 21:33N 47°40' W 122°24'0 0.0
2014-Sep-13 20:33N 47°40' W 122°24'0 0.0
2014-Sep-13 19:33N 47°40' W 122°24'0 0.0
2014-Sep-13 18:33N 47°40' W 122°24'0 0.0
2014-Sep-13 17:33N 47°40' W 122°24'0 0.0
2014-Sep-13 16:33N 47°40' W 122°24'0 0.0
2014-Sep-13 15:33N 47°40' W 122°24'0 0.0
2014-Sep-13 14:33N 47°40' W 122°24'0 0.0
2014-Sep-13 13:33N 47°40' W 122°24'0 0.0
2014-Sep-13 12:33N 47°40' W 122°24'0 0.0
2014-Sep-13 11:33N 47°40' W 122°24'0 0.0
2014-Sep-13 10:33N 47°40' W 122°24'0 0.0
2014-Sep-13 09:33N 47°40' W 122°24'0 0.0
2014-Sep-13 08:33N 47°40' W 122°24'0 0.0
2014-Sep-13 07:33N 47°40' W 122°24'0 0.0
2014-Sep-13 06:33N 47°40' W 122°24'0 0.0
2014-Sep-13 05:33N 47°40' W 122°24'0 0.0
2014-Sep-13 04:33N 47°40' W 122°24'0 0.0
2014-Sep-13 03:33N 47°40' W 122°24'0 0.0
2014-Sep-13 02:33N 47°40' W 122°24'0 0.0
2014-Sep-13 01:33N 47°40' W 122°24'0 0.0
2014-Sep-13 00:33N 47°40' W 122°24'0 0.0
2014-Sep-12 23:33N 47°40' W 122°24'0 0.0
2014-Sep-12 22:33N 47°40' W 122°24'0 0.0
2014-Sep-12 21:33N 47°40' W 122°24'0 0.0
2014-Sep-12 20:33N 47°40' W 122°24'0 0.0
2014-Sep-12 19:33N 47°40' W 122°24'0 0.0
2014-Sep-12 18:33N 47°40' W 122°24'0 0.0
2014-Sep-12 17:33N 47°40' W 122°24'0 0.0
2014-Sep-12 16:33N 47°40' W 122°24'0 0.0
2014-Sep-12 15:33N 47°40' W 122°24'0 0.0
2014-Sep-12 14:33N 47°40' W 122°24'0 0.0
2014-Sep-12 13:33N 47°40' W 122°24'0 0.0
2014-Sep-12 12:33N 47°40' W 122°24'0 0.0
2014-Sep-12 11:33N 47°40' W 122°24'0 0.0
2014-Sep-12 10:33N 47°40' W 122°24'0 0.0
2014-Sep-12 09:33N 47°40' W 122°24'0 0.0
2014-Sep-12 08:33N 47°40' W 122°24'0 0.0
2014-Sep-12 07:33N 47°40' W 122°24'0 0.0
2014-Sep-12 06:33N 47°40' W 122°24'0 0.0
2014-Sep-12 05:33N 47°40' W 122°24'0 0.0
2014-Sep-12 04:33N 47°40' W 122°24'0 0.0
2014-Sep-12 03:33N 47°40' W 122°24'0 0.0
2014-Sep-12 02:34N 47°40' W 122°24'0 0.0
2014-Sep-12 01:33N 47°40' W 122°24'0 0.0
2014-Sep-12 00:33N 47°40' W 122°24'0 0.0
2014-Sep-11 23:33N 47°40' W 122°24'0 0.0
2014-Sep-11 22:33N 47°40' W 122°24'0 0.2
2014-Sep-11 21:33N 47°40' W 122°24'0 0.5
2014-Sep-11 20:33N 47°40' W 122°24'3 2.7
2014-Sep-11 19:33N 47°38' W 122°27'1010.0
2014-Sep-11 18:33N 47°28' W 122°31'1111.0
2014-Sep-11 17:33N 47°17' W 122°32'17 0.9
2014-Sep-10 22:32N 47°09' W 122°54'7 6.4
2014-Sep-10 21:24N 47°07' W 122°43'6 6.8
2014-Sep-10 20:33N 47°12' W 122°38'8 6.2
2014-Sep-10 19:19N 47°19' W 122°43'2 2.1
2014-Sep-10 18:33N 47°20' W 122°42'6 5.6
2014-Sep-10 17:28N 47°14' W 122°42'6 6.0
2014-Sep-10 16:33N 47°10' W 122°47'2 0.1
2014-Sep-09 22:20N 47°11' W 122°48'1 1.4
2014-Sep-09 21:16N 47°10' W 122°47'5 6.5
2014-Sep-09 20:29N 47°14' W 122°51'4 1.9
2014-Sep-09 18:17N 47°17' W 122°55'9 0.5
2014-Sep-08 22:07N 47°08' W 122°55'5 8.5
2014-Sep-08 21:29N 47°11' W 122°49'6 6.9
2014-Sep-08 20:33N 47°09' W 122°40'9 9.2
2014-Sep-08 19:33N 47°17' W 122°33'8 8.1
2014-Sep-08 18:33N 47°25' W 122°32'7 7.0
2014-Sep-08 17:33N 47°32' W 122°28'7 6.6
2014-Sep-08 16:33N 47°36' W 122°20'1 1.4
2014-Sep-08 15:33N 47°37' W 122°22'3 3.2
2014-Sep-08 14:33N 47°40' W 122°24'  

Dump ship's entire track history